TimeCST,TemperatureF,Dew PointF,Humidity,Sea Level PressureIn,VisibilityMPH,Wind Direction,Wind SpeedMPH,Gust SpeedMPH,PrecipitationIn,Events,Conditions,WindDirDegrees,DateUTC
12:53 AM,35.1,28.9,78,30.28,10.0,Calm,Calm,-,0.00,,Overcast,0,2012-12-31 06:53:00
1:53 AM,36.0,28.9,76,30.28,10.0,Calm,Calm,-,N/A,,Overcast,0,2012-12-31 07:53:00
2:53 AM,37.9,27.0,65,30.26,10.0,Calm,Calm,-,N/A,,Overcast,0,2012-12-31 08:53:00
3:53 AM,37.0,28.0,70,30.26,10.0,Calm,Calm,-,N/A,,Overcast,0,2012-12-31 09:53:00
4:53 AM,36.0,28.9,76,30.24,10.0,Calm,Calm,-,N/A,,Overcast,0,2012-12-31 10:53:00
5:53 AM,36.0,28.9,76,30.24,10.0,Calm,Calm,-,N/A,,Overcast,0,2012-12-31 11:53:00
6:53 AM,36.0,28.9,76,30.19,10.0,Calm,Calm,-,N/A,,Overcast,0,2012-12-31 12:53:00
7:53 AM,36.0,28.9,76,30.18,10.0,East,3.5,-,N/A,,Overcast,100,2012-12-31 13:53:00
8:53 AM,36.0,30.0,79,30.17,10.0,East,3.5,-,N/A,,Overcast,90,2012-12-31 14:53:00
9:53 AM,35.1,34.0,96,30.19,4.0,Calm,Calm,-,0.03,Rain,Light Rain,0,2012-12-31 15:53:00
10:53 AM,36.0,33.1,89,30.15,5.0,Variable,3.5,-,0.03,Rain,Light Rain,0,2012-12-31 16:53:00
11:53 AM,36.0,35.1,97,30.08,4.0,Calm,Calm,-,0.05,Rain,Light Rain,0,2012-12-31 17:53:00
12:11 PM,37.4,35.6,93,30.05,4.0,Calm,Calm,-,0.01,Rain,Light Rain,0,2012-12-31 18:11:00
12:20 PM,37.4,35.6,93,30.04,4.0,Calm,Calm,-,0.02,Rain,Light Rain,0,2012-12-31 18:20:00
12:42 PM,35.6,35.6,100,30.03,2.5,Calm,Calm,-,0.02,Rain,Light Rain,0,2012-12-31 18:42:00
12:50 PM,36.0,36.0,100,30.05,0.8,Calm,Calm,-,0.03,Rain,Light Rain,0,2012-12-31 18:50:00
1:02 PM,37.4,35.6,93,30.01,1.2,Calm,Calm,-,0.01,Rain,Light Rain,0,2012-12-31 19:02:00
1:31 PM,37.4,35.6,93,29.99,0.8,Calm,Calm,-,0.02,Rain,Light Rain,0,2012-12-31 19:31:00
1:39 PM,37.4,37.4,100,29.98,2.0,Calm,Calm,-,0.03,Rain,Light Rain,0,2012-12-31 19:39:00
1:53 PM,37.9,37.0,97,30.01,2.5,Variable,3.5,-,0.03,Rain,Light Rain,0,2012-12-31 19:53:00
2:05 PM,37.4,37.4,100,29.98,1.0,Calm,Calm,-,0.00,Rain,Light Rain,0,2012-12-31 20:05:00
2:19 PM,37.4,37.4,100,29.96,2.5,Calm,Calm,-,0.01,Rain,Light Rain,0,2012-12-31 20:19:00
2:53 PM,37.9,37.9,100,29.99,1.2,Calm,Calm,-,0.03,Rain,Light Rain,0,2012-12-31 20:53:00
3:02 PM,37.4,37.4,100,29.97,0.5,WNW,3.5,-,0.01,Fog-Rain,Light Rain,300,2012-12-31 21:02:00
3:13 PM,37.4,37.4,100,29.96,0.5,Calm,Calm,-,0.02,Fog-Rain,Light Rain,0,2012-12-31 21:13:00
3:41 PM,37.4,35.6,93,30.03,1.2,NW,3.5,-,0.07,Rain,Rain,320,2012-12-31 21:41:00
3:53 PM,37.0,37.0,100,30.05,1.5,Calm,Calm,-,0.10,Rain,Light Rain,0,2012-12-31 21:53:00
4:29 PM,37.4,37.4,100,30.01,1.8,SSE,3.5,-,0.04,Rain,Light Rain,150,2012-12-31 22:29:00
4:50 PM,37.0,37.0,100,30.04,2.0,Calm,Calm,-,0.04,,Overcast,0,2012-12-31 22:50:00
4:59 PM,37.4,37.4,100,30.00,1.5,SE,3.5,-,0.00,,Overcast,140,2012-12-31 22:59:00
5:27 PM,37.4,37.4,100,30.01,0.8,Calm,Calm,-,0.01,,Overcast,0,2012-12-31 23:27:00
5:45 PM,35.6,35.6,100,29.99,1.2,Calm,Calm,-,0.02,,Overcast,0,2012-12-31 23:45:00
5:53 PM,37.0,37.0,100,30.03,1.0,Calm,Calm,-,0.02,,Overcast,0,2012-12-31 23:53:00
6:00 PM,35.6,35.6,100,30.00,0.8,Calm,Calm,-,N/A,,Overcast,0,2013-01-01 00:00:00
6:43 PM,37.4,35.6,93,29.99,0.8,Calm,Calm,-,N/A,,Overcast,0,2013-01-01 00:43:00
6:53 PM,36.0,36.0,100,30.02,0.5,Calm,Calm,-,N/A,Fog,Fog,0,2013-01-01 00:53:00
7:13 PM,35.6,35.6,100,29.98,0.5,Calm,Calm,-,N/A,Fog,Fog,0,2013-01-01 01:13:00
7:53 PM,36.0,36.0,100,30.02,0.5,Calm,Calm,-,N/A,Fog,Fog,0,2013-01-01 01:53:00
8:01 PM,35.6,35.6,100,29.99,0.2,Calm,Calm,-,N/A,Fog,Fog,0,2013-01-01 02:01:00
8:53 PM,35.1,35.1,100,30.02,0.2,Calm,Calm,-,N/A,Fog,Fog,0,2013-01-01 02:53:00
9:08 PM,35.6,35.6,100,29.99,0.5,Calm,Calm,-,N/A,Fog,Fog,0,2013-01-01 03:08:00
9:53 PM,35.1,35.1,100,30.05,0.5,Calm,Calm,-,N/A,Fog,Fog,0,2013-01-01 03:53:00
10:16 PM,35.6,35.6,100,30.02,0.2,Calm,Calm,-,N/A,Fog,Fog,0,2013-01-01 04:16:00
10:39 PM,35.6,35.6,100,30.02,0.5,Calm,Calm,-,N/A,Fog,Fog,0,2013-01-01 04:39:00
10:53 PM,36.0,36.0,100,30.05,0.5,Calm,Calm,-,N/A,Fog,Fog,0,2013-01-01 04:53:00
11:53 PM,36.0,36.0,100,30.05,0.5,Calm,Calm,-,N/A,Fog,Fog,0,2013-01-01 05:53:00